This is the latest recevied weather packets stored in our database for station/object K3TLB-13. If no packets are shown the sender has not sent any weather packets the latest 10 day(s).
| Time | Temp. | Humidity | Pressure | Rain* | Wind** | Luminosity | Snow |
|---|---|---|---|---|---|---|---|
| 1778189636 | 18.89° C | 34% | 1008.2 hPa | 0 mm | - | - | - |
| 1778189335 | 18.33° C | 34% | 1008.2 hPa | 0 mm | - | - | - |
| 1778189207 | 18.89° C | 33% | 1008.3 hPa | 0 mm | - | - | - |
| 1778189038 | 18.89° C | 34% | 1008.4 hPa | 0 mm | - | - | - |
| 1778188734 | 18.89° C | 33% | 1008.3 hPa | 0 mm | - | - | - |
| 1778188435 | 18.89° C | 34% | 1008.2 hPa | 0 mm | - | - | - |
| 1778188134 | 19.44° C | 32% | 1008.2 hPa | 0 mm | - | - | - |
| 1778187835 | 18.89° C | 35% | 1008.2 hPa | 0 mm | - | - | - |
| 1778187534 | 18.89° C | 34% | 1008.3 hPa | 0 mm | - | - | - |
| 1778187238 | 18.33° C | 32% | 1008.2 hPa | 0 mm | - | - | - |
| 1778186983 | 17.78° C | 34% | 1008.3 hPa | 0 mm | - | - | - |
| 1778186934 | 17.78° C | 34% | 1008.3 hPa | 0 mm | - | - | - |
| 1778186635 | 18.33° C | 36% | 1008.3 hPa | 0 mm | - | - | - |
| 1778186367 | 18.33° C | 33% | 1008.4 hPa | 0 mm | - | - | - |
| 1778186335 | 18.33° C | 33% | 1008.4 hPa | 0 mm | - | - | - |
| 1778186036 | 17.78° C | 34% | 1008.4 hPa | 0 mm | - | - | - |
| 1778185734 | 18.33° C | 37% | 1008.4 hPa | 0 mm | - | - | - |
| 1778185436 | 17.78° C | 34% | 1008.4 hPa | 0 mm | - | - | - |
| 1778185134 | 17.78° C | 34% | 1008.5 hPa | 0 mm | - | - | - |
| 1778184835 | 17.78° C | 35% | 1008.5 hPa | 0 mm | - | - | - |
| 1778184570 | 17.78° C | 38% | 1008.7 hPa | 0 mm | - | - | - |
| 1778184534 | 17.78° C | 38% | 1008.7 hPa | 0 mm | - | - | - |
| 1778184519 | 17.78° C | 32% | 1008.8 hPa | 0 mm | - | - | - |
| 1778184235 | 17.78° C | 32% | 1008.8 hPa | 0 mm | - | - | - |
| 1778183934 | 17.78° C | 33% | 1008.8 hPa | 0 mm | - | - | - |
* Rain latest hour (hover to see other rain measurements)
** Current wind speed in m/s (hover to see current wind gust speed)